Rifle, CO

3:21 PM MST on November 18, 2017 (GMT -0700)
Garfield County Regional

Weather History for KRIL - November, 2014

Change the Weather History Date:

Wednesday, November 19, 2014

  Actual Average Record
Temperature  
Mean Temperature 32 °F 34 °F  
Max Temperature 44 °F 46 °F 66 °F (1943)
Min Temperature 20 °F 22 °F 5 °F (1951)
Degree Days  
Heating Degree Days 33 31  
Month to date heating degree days 578 512  
Since 1 July heating degree days 1082 1156  
Cooling Degree Days 0 0  
Month to date cooling degree days 0 0  
Year to date cooling degree days 555 541  
Moisture  
Dew Point 16 °F    
Average Humidity 54    
Maximum Humidity 81    
Minimum Humidity 27    
Precipitation  
Precipitation 0.00 in 0.03 in 0.37 in (1977)
Month to date precipitation 0.35 0.79  
Year to date precipitation 11.66 13.15  
Sea Level Pressure  
Sea Level Pressure 30.31 in    
Wind  
Wind Speed 2 mph (SE)    
Max Wind Speed 8 mph    
Max Gust Speed 10 mph    
Visibility 10 miles    
Events      
T = Trace of Precipitation, MM = Missing Value Source: NWS Daily Summary

Daily Weather History Graph

Daily Weather History Graph

Search for Another Location

Airport or City:

Trip Planner

Search our weather history database for the weather conditions in past years. The results will help you decide how hot, cold, wet, or windy it might be!

Date:

Astronomy

Nov. 19, 2014 Rise Set
Actual Time 6:59 AM MST 4:52 PM MST
Civil Twilight 6:30 AM MST 5:21 PM MST
Nautical Twilight 5:57 AM MST 5:54 PM MST
Astronomical Twilight 5:25 AM MST 6:26 PM MST
Moon 3:59 AM MST (11/19) 3:21 PM MST (11/19)
Length of Visible Light 10h 51m
Length of Day
9h 53m
Waning Crescent, 8% of the Moon is Illuminated
Nov 19
Waning Crescent
Nov 22
New
Nov 29
First Quarter
Dec 6
Full
Dec 14
Last Quarter

Hourly Weather History & Observations

Time (MST) Temp. Windchill Dew Point Humidity Pressure Visibility Wind Dir Wind Speed Gust Speed Precip Events Conditions
12:53 AM 24.1 °F 19.7 °F 18.0 °F 77% 30.40 in 10.0 mi East 3.5 mph - N/A   Clear
1:53 AM 24.1 °F - 18.0 °F 77% 30.38 in 10.0 mi Calm Calm - N/A   Clear
2:53 AM 24.1 °F 19.7 °F 18.0 °F 77% 30.38 in 10.0 mi SW 3.5 mph - N/A   Clear
3:53 AM 24.1 °F - 17.1 °F 75% 30.38 in 10.0 mi Calm Calm - N/A   Clear
4:53 AM 23.0 °F - 17.1 °F 78% 30.39 in 10.0 mi Calm Calm - N/A   Clear
5:53 AM 21.0 °F - 16.0 °F 81% 30.40 in 10.0 mi Calm Calm - N/A   Clear
6:53 AM 21.0 °F - 16.0 °F 81% 30.40 in 10.0 mi Calm Calm - N/A   Clear
7:53 AM 23.0 °F - 17.1 °F 78% 30.41 in 10.0 mi Calm Calm - N/A   Clear
8:53 AM 27.0 °F - 16.0 °F 63% 30.40 in 10.0 mi Calm Calm - N/A   Clear
9:53 AM 28.9 °F - 16.0 °F 58% 30.38 in 10.0 mi Calm Calm - N/A   Clear
10:53 AM 33.1 °F - 15.1 °F 48% 30.34 in 10.0 mi Calm Calm - N/A   Clear
11:53 AM 37.0 °F - 14.0 °F 39% 30.29 in 10.0 mi Calm Calm - N/A   Clear
12:53 PM 41.0 °F - 10.9 °F 29% 30.23 in 10.0 mi Calm Calm - N/A   Clear
1:53 PM 43.0 °F 41.3 °F 12.9 °F 30% 30.20 in 10.0 mi Variable 3.5 mph - N/A   Clear
2:53 PM 44.1 °F - 12.0 °F 27% 30.18 in 10.0 mi Calm Calm - N/A   Clear
3:53 PM 43.0 °F 38.8 °F 15.1 °F 32% 30.17 in 10.0 mi SSE 6.9 mph - N/A   Clear
4:53 PM 36.0 °F - 18.0 °F 48% 30.21 in 10.0 mi Calm Calm - N/A   Clear
5:53 PM 33.1 °F 27.7 °F 18.0 °F 54% 30.25 in 10.0 mi ESE 5.8 mph - N/A   Clear
6:53 PM 28.0 °F 20.8 °F 18.0 °F 66% 30.27 in 10.0 mi SE 6.9 mph - N/A   Clear
7:53 PM 27.0 °F 23.0 °F 18.0 °F 69% 30.28 in 10.0 mi South 3.5 mph - N/A   Clear
8:53 PM 26.1 °F - 16.0 °F 66% 30.27 in 10.0 mi Calm Calm - N/A   Clear
9:53 PM 25.0 °F 18.1 °F 16.0 °F 69% 30.28 in 10.0 mi SE 5.8 mph - N/A   Clear
10:53 PM 21.9 °F 17.2 °F 15.1 °F 75% 30.26 in 10.0 mi SE 3.5 mph - N/A   Clear
11:53 PM 21.9 °F - 15.1 °F 75% 30.25 in 10.0 mi Calm Calm - N/A   Clear